Flag for Italy Weather past 2 weeks in Venice, Italy

Now
72 °F

Clear.


Feels Like: 72 °F
Forecast: 69 / 79 °F
Wind: 5 mph from North

Location: Venice / Tessera

Current Time: Jul 26, 2014 at 1:27:42 AM

Latest Report: Jul 26, 2014 at 12:50 AM


Visibility: 10 mi

Pressure: 29.92 "Hg

Humidity: 78%

Dew point: 64 °F

Location of VeniceLocation

Historic Weather in Venice — Graph

°F

Venice temperature yesterday

Maximum temperature yesterday: 81 °F (at 2:20 PM)
Minimum temperature yesterday: 68 °F (at 12:20 AM)
Average temperature yesterday: 74 °F

Past Weeks' High & Low Weather Summary

 TemperatureHumidityPressure
High88 °F (Jul 16, 3:50 PM)100% (Jul 14, 9:50 AM)30.09 "Hg (Jul 14, 9:50 AM)
Low61 °F (Jul 11, 3:20 AM)37% (Jul 15, 2:20 PM)29.71 "Hg (Jul 11, 5:20 AM)
Average75 °F71%29.90 "Hg
* Reported Jul 11 12:20 AM — Jul 26 12:20 AM, Venice, Weather by CustomWeather, © 2014

Note: Actual official high and low records may vary slightly from our data, if they occured in-between our weather recording intervals... More about our weather records

Advertising

Venice weather history for previous 24 hours

 ConditionsComfort  
Time TempWeatherWind HumidityBarometerVisibility
12:20 AM
Jul 26
75 °FClear.2 mph74%29.92 "Hg10 mi
11:50 PM
Jul 25
75 °FClear.2 mph69%29.89 "Hg10 mi
11:20 PM73 °FClear.3 mph78%29.92 "Hg10 mi
10:50 PM75 °FPassing clouds.2 mph69%29.89 "HgN/A
10:20 PM75 °FPassing clouds.2 mph69%29.89 "HgN/A
9:50 PM75 °FPassing clouds.5 mph69%29.89 "HgN/A
9:20 PM75 °FScattered clouds.5 mph69%29.89 "HgN/A
8:50 PM75 °FScattered clouds.5 mph65%29.89 "HgN/A
8:20 PM77 °FSunny.2 mph61%29.89 "Hg10 mi
7:50 PM77 °FSunny.3 mph61%29.89 "Hg10 mi
7:20 PM77 °FSunny.6 mph57%29.89 "Hg10 mi
6:50 PM79 °FSunny.6 mph54%29.86 "Hg10 mi
6:20 PM79 °FSunny.3 mph54%29.86 "Hg10 mi
5:50 PM81 °FSunny.5 mph51%29.89 "Hg10 mi
5:20 PM81 °FSunny.5 mph48%29.89 "Hg10 mi
4:50 PM81 °FSunny.3 mph48%29.89 "Hg10 mi
4:20 PM81 °FSunny.5 mph54%29.89 "Hg10 mi
3:50 PM81 °FSunny.5 mph51%29.89 "Hg10 mi
3:20 PM79 °FSunny.5 mph54%29.89 "Hg10 mi
2:50 PM79 °FPassing clouds.6 mph58%29.92 "HgN/A
2:20 PM81 °FPassing clouds.5 mph58%29.92 "HgN/A
1:50 PM79 °FPassing clouds.5 mph54%29.92 "HgN/A
1:20 PM77 °FPassing clouds.5 mph57%29.92 "HgN/A
12:50 PM77 °FPassing clouds.6 mph61%29.92 "HgN/A
12:20 PM77 °FPassing clouds.5 mph61%29.92 "HgN/A
11:50 AM77 °FPassing clouds.5 mph65%29.92 "HgN/A
11:20 AM75 °FPassing clouds.2 mph69%29.92 "HgN/A
10:50 AM75 °FScattered clouds.3 mph69%29.92 "HgN/A
10:20 AM73 °FPartly sunny.1 mph78%29.92 "HgN/A
9:50 AM72 °FPartly sunny.3 mph78%29.92 "HgN/A
9:20 AM70 °FPartly sunny.2 mph83%29.92 "HgN/A
8:50 AM70 °FPartly sunny.2 mph83%29.89 "HgN/A
8:20 AM68 °FPartly sunny.3 mph88%29.89 "HgN/A
7:50 AM68 °FPartly sunny.3 mph88%29.89 "HgN/A
7:20 AM68 °FPartly sunny.3 mph88%29.89 "HgN/A
6:50 AM68 °FScattered clouds.3 mph88%29.89 "HgN/A
6:20 AM68 °FPassing clouds.3 mph88%29.86 "HgN/A
5:50 AM68 °FPassing clouds.2 mph88%29.86 "HgN/A
5:20 AM70 °FPassing clouds.3 mph88%29.89 "HgN/A
4:50 AM68 °FPassing clouds.2 mph94%29.86 "HgN/A
4:20 AM68 °FClear.2 mph94%29.86 "Hg10 mi
3:50 AM70 °FClear.1 mph83%29.86 "Hg10 mi
3:20 AM68 °FClear.2 mph88%29.86 "Hg10 mi
1:50 AM70 °FClear.No wind83%29.89 "Hg10 mi
1:20 AM68 °FClear.1 mph88%29.89 "Hg10 mi
Weather by CustomWeather, © 2014

See weather overviewHow to use our weather pages